N738BJ KBFI-RJAA

Flight info

Callsign N738BJ
Flight time N/A
Altitude 40000
Route NRVNA1 NRVNA DCT ZIGED DCT PERLL DCT ARRIE J523 TOU DCT LETOG DCT METPA B453 KATCH B757 CJAYY J123 ODK/N0456F360 J123 KOKOZ DCT EHM B757 HOWRR M523 HAVAM R341 NATES/N0445F380 R220 NUZAN/N0455F390 R220 NUBDA/N0450F400 R220 NANAC Y810 OLDIV Y809 SUPOK
Aircraft B738/M-SDE2E3FGHIRWXY/LB1

Departure

Time N/A
Airport King County International Airport - Boeing Field (KBFI)

Arrival

Time 2026-05-05 13:08
Airport Narita International Airport (RJAA)
Time Latitude Longitude Altitude Speed Heading
2026-05-05 11:40 41.32626 146.10963 37041 ft 392 kts 228°
2026-05-05 11:41 41.30651 146.08503 37523 ft 386 kts 228°
2026-05-05 11:41 41.28701 146.06074 37907 ft 383 kts 228°
2026-05-05 11:41 41.26759 146.03654 38244 ft 381 kts 228°
2026-05-05 11:41 41.24828 146.01244 38472 ft 381 kts 228°
2026-05-05 11:42 41.22892 145.98828 38689 ft 382 kts 228°
2026-05-05 11:42 41.20956 145.96412 38887 ft 383 kts 228°
2026-05-05 11:42 41.19014 145.93990 39052 ft 384 kts 228°
2026-05-05 11:42 41.17062 145.91556 39168 ft 387 kts 228°
2026-05-05 11:43 41.15093 145.89104 39277 ft 389 kts 228°
2026-05-05 11:43 41.13118 145.86647 39474 ft 389 kts 228°
2026-05-05 11:43 41.11144 145.84195 39700 ft 388 kts 228°
2026-05-05 11:43 41.09174 145.81751 39889 ft 388 kts 228°
2026-05-05 11:44 41.07198 145.79302 39959 ft 389 kts 228°
2026-05-05 11:44 41.03222 145.74379 39976 ft 391 kts 228°
2026-05-05 11:45 40.99287 145.69517 39975 ft 387 kts 228°
2026-05-05 11:45 40.95366 145.64678 39965 ft 384 kts 228°
2026-05-05 11:46 40.91476 145.59879 39980 ft 381 kts 228°
2026-05-05 11:46 40.87596 145.55112 39967 ft 380 kts 228°
2026-05-05 11:47 40.83730 145.50364 39978 ft 379 kts 228°
2026-05-05 11:47 40.79864 145.45618 39986 ft 379 kts 228°
2026-05-05 11:48 40.74040 145.38491 39990 ft 382 kts 228°
2026-05-05 11:48 40.70137 145.33723 40001 ft 384 kts 228°
2026-05-05 11:49 40.66208 145.28937 40002 ft 385 kts 228°
2026-05-05 11:49 40.62264 145.24139 40001 ft 387 kts 228°
2026-05-05 11:50 40.58303 145.19326 40005 ft 388 kts 228°
2026-05-05 11:50 40.54331 145.14510 40009 ft 389 kts 228°
2026-05-05 11:51 40.50353 145.09692 40011 ft 389 kts 227°
2026-05-05 11:51 40.46369 145.04875 40009 ft 389 kts 227°
2026-05-05 11:52 40.42382 145.00064 40014 ft 389 kts 228°
2026-05-05 11:52 40.38393 144.95265 40018 ft 389 kts 227°
2026-05-05 11:53 40.34404 144.90475 39999 ft 389 kts 227°
2026-05-05 11:53 40.30416 144.85693 39994 ft 388 kts 227°
2026-05-05 11:54 40.26457 144.80953 39997 ft 388 kts 227°
2026-05-05 11:54 40.22472 144.76189 40000 ft 388 kts 227°
2026-05-05 11:55 40.18493 144.71439 40000 ft 387 kts 227°
2026-05-05 11:55 40.14516 144.66699 40008 ft 387 kts 227°
2026-05-05 11:56 40.10535 144.61963 40008 ft 386 kts 227°
2026-05-05 11:56 40.06558 144.57238 40010 ft 386 kts 227°
2026-05-05 11:57 40.02573 144.52512 39999 ft 387 kts 227°
2026-05-05 11:57 39.98611 144.47821 40006 ft 387 kts 227°
2026-05-05 11:58 39.94622 144.43106 39998 ft 387 kts 227°
2026-05-05 11:58 39.90631 144.38400 40002 ft 387 kts 227°
2026-05-05 11:59 39.86637 144.33695 40009 ft 387 kts 227°
2026-05-05 11:59 39.82645 144.28998 40014 ft 387 kts 227°
2026-05-05 12:00 39.78660 144.24319 40064 ft 386 kts 227°
2026-05-05 12:00 39.74673 144.19644 40080 ft 386 kts 227°
2026-05-05 12:01 39.70685 144.14975 40086 ft 386 kts 227°
2026-05-05 12:01 39.66690 144.10307 40087 ft 387 kts 227°
2026-05-05 12:02 39.62686 144.05642 40093 ft 386 kts 228°
2026-05-05 12:02 39.58723 144.01019 40081 ft 386 kts 228°
2026-05-05 12:03 39.54723 143.96374 40083 ft 386 kts 228°
2026-05-05 12:03 39.50729 143.91734 40090 ft 385 kts 228°
2026-05-05 12:04 39.46742 143.87113 40090 ft 384 kts 228°
2026-05-05 12:04 39.42758 143.82501 40095 ft 384 kts 228°
2026-05-05 12:05 39.38798 143.77922 40116 ft 381 kts 228°
2026-05-05 12:05 39.34849 143.73368 40125 ft 380 kts 227°
2026-05-05 12:06 39.30897 143.68822 40130 ft 379 kts 228°
2026-05-05 12:06 39.26957 143.64293 40138 ft 379 kts 228°
2026-05-05 12:07 39.23030 143.59778 40138 ft 378 kts 228°
2026-05-05 12:07 39.19104 143.55281 40140 ft 377 kts 228°
2026-05-05 12:08 39.15208 143.50818 40138 ft 377 kts 228°
2026-05-05 12:08 39.11294 143.46343 40139 ft 376 kts 228°
2026-05-05 12:09 39.07378 143.41874 40137 ft 376 kts 228°
2026-05-05 12:09 39.03469 143.37420 40149 ft 375 kts 228°
2026-05-05 12:10 38.99564 143.32976 40146 ft 375 kts 228°
2026-05-05 12:10 38.95658 143.28539 40148 ft 375 kts 228°
2026-05-05 12:11 38.92238 143.25071 40141 ft 383 kts 218°
2026-05-05 12:11 38.87320 143.22190 40139 ft 396 kts 207°
2026-05-05 12:12 38.81878 143.20741 40140 ft 406 kts 200°
2026-05-05 12:12 38.76300 143.19554 40141 ft 406 kts 200°
2026-05-05 12:13 38.70748 143.18362 40140 ft 404 kts 200°
2026-05-05 12:13 38.65210 143.17148 40145 ft 403 kts 200°
2026-05-05 12:14 38.59719 143.15932 40148 ft 402 kts 201°
2026-05-05 12:14 38.54214 143.14711 40151 ft 400 kts 201°
2026-05-05 12:15 38.48725 143.13496 40145 ft 400 kts 201°
2026-05-05 12:15 38.43252 143.12286 40147 ft 399 kts 201°
2026-05-05 12:16 38.37792 143.11082 40148 ft 398 kts 201°
2026-05-05 12:16 38.32343 143.09881 40147 ft 397 kts 201°
2026-05-05 12:17 38.26938 143.08692 40148 ft 397 kts 201°
2026-05-05 12:17 38.21493 143.07495 40148 ft 396 kts 201°
2026-05-05 12:18 38.16057 143.06303 40148 ft 396 kts 201°
2026-05-05 12:18 38.10619 143.05112 40150 ft 396 kts 201°
2026-05-05 12:19 38.05184 143.03923 40167 ft 396 kts 201°
2026-05-05 12:19 37.99744 143.02736 40183 ft 397 kts 201°
2026-05-05 12:20 37.94303 143.01550 40194 ft 397 kts 202°
2026-05-05 12:20 37.88859 143.00365 40183 ft 397 kts 201°
2026-05-05 12:21 37.83415 142.99182 40180 ft 396 kts 201°
2026-05-05 12:21 37.78021 142.98012 40180 ft 396 kts 202°
2026-05-05 12:22 37.72595 142.96837 40184 ft 395 kts 202°
2026-05-05 12:22 37.67183 142.95666 40181 ft 394 kts 202°
2026-05-05 12:23 37.61790 142.94501 40180 ft 393 kts 202°
2026-05-05 12:23 37.56407 142.93340 40189 ft 392 kts 202°
2026-05-05 12:24 37.51032 142.92181 40183 ft 391 kts 202°
2026-05-05 12:24 37.45667 142.91027 40183 ft 391 kts 202°
2026-05-05 12:25 37.40303 142.89874 40185 ft 390 kts 202°
2026-05-05 12:25 37.34950 142.88726 40197 ft 390 kts 202°
2026-05-05 12:26 37.29629 142.87586 40191 ft 390 kts 202°
2026-05-05 12:26 37.24282 142.86439 40195 ft 390 kts 202°
2026-05-05 12:27 37.18928 142.85290 40197 ft 390 kts 202°
2026-05-05 12:27 37.13584 142.84112 40189 ft 385 kts 206°
2026-05-05 12:28 37.11062 142.83147 40196 ft 374 kts 212°
2026-05-05 12:28 37.08729 142.81816 40199 ft 364 kts 219°
2026-05-05 12:28 37.04336 142.78685 40199 ft 364 kts 219°
2026-05-05 12:29 36.99951 142.75573 40204 ft 365 kts 219°
2026-05-05 12:29 36.95517 142.72444 40204 ft 366 kts 219°
2026-05-05 12:30 36.91069 142.69316 40204 ft 367 kts 219°
2026-05-05 12:30 36.86609 142.66186 40204 ft 368 kts 219°
2026-05-05 12:31 36.82143 142.63057 40205 ft 368 kts 219°
2026-05-05 12:31 36.77671 142.59928 40211 ft 368 kts 219°
2026-05-05 12:32 36.73208 142.56810 40212 ft 368 kts 219°
2026-05-05 12:32 36.68748 142.53697 40213 ft 367 kts 219°
2026-05-05 12:33 36.64322 142.50613 40209 ft 366 kts 219°
2026-05-05 12:33 36.59886 142.47525 40231 ft 365 kts 219°
2026-05-05 12:34 36.55441 142.44431 39837 ft 368 kts 219°
2026-05-05 12:34 36.53211 142.42883 39332 ft 366 kts 220°
2026-05-05 12:34 36.50998 142.41351 38838 ft 363 kts 220°
2026-05-05 12:35 36.48811 142.39838 38483 ft 356 kts 220°
2026-05-05 12:35 36.46654 142.38347 38049 ft 352 kts 220°
2026-05-05 12:35 36.44535 142.36882 37673 ft 346 kts 220°
2026-05-05 12:35 36.42450 142.35439 37316 ft 340 kts 221°
2026-05-05 12:36 36.40402 142.34021 36938 ft 335 kts 221°
2026-05-05 12:36 36.38379 142.32622 36597 ft 329 kts 221°
2026-05-05 12:36 36.36392 142.31246 36261 ft 324 kts 221°
2026-05-05 12:36 36.34443 142.29897 35887 ft 320 kts 221°
2026-05-05 12:37 36.32508 142.28560 35533 ft 316 kts 221°
2026-05-05 12:37 36.30599 142.27243 35193 ft 312 kts 221°
2026-05-05 12:37 36.28713 142.25943 34858 ft 307 kts 222°
2026-05-05 12:37 36.26866 142.24670 34616 ft 302 kts 222°
2026-05-05 12:38 36.25026 142.23392 34379 ft 307 kts 222°
2026-05-05 12:38 36.23165 142.22100 34089 ft 304 kts 222°
2026-05-05 12:38 36.21334 142.20836 33746 ft 300 kts 222°
2026-05-05 12:38 36.19545 142.19602 33422 ft 296 kts 222°
2026-05-05 12:39 36.17756 142.18367 33072 ft 293 kts 223°
2026-05-05 12:39 36.15982 142.17142 32745 ft 290 kts 223°
2026-05-05 12:39 36.14232 142.15933 32403 ft 286 kts 223°
2026-05-05 12:39 36.12498 142.14733 32079 ft 287 kts 223°
2026-05-05 12:40 36.10720 142.13510 31754 ft 299 kts 222°
2026-05-05 12:40 36.08898 142.12212 31414 ft 306 kts 223°
2026-05-05 12:40 36.07027 142.10955 31068 ft 305 kts 222°
2026-05-05 12:40 36.05199 142.09689 30777 ft 297 kts 223°
2026-05-05 12:41 36.03377 142.08461 30411 ft 298 kts 223°
2026-05-05 12:41 36.01611 142.07214 30089 ft 291 kts 224°
2026-05-05 12:41 35.99852 142.05985 29758 ft 290 kts 223°
2026-05-05 12:41 35.98085 142.04817 29390 ft 289 kts 222°
2026-05-05 12:42 35.96337 142.03603 29074 ft 288 kts 223°
2026-05-05 12:42 35.94563 142.02358 28721 ft 301 kts 221°
2026-05-05 12:42 35.92710 142.01055 28368 ft 309 kts 221°
2026-05-05 12:42 35.90845 141.99767 27994 ft 304 kts 221°
2026-05-05 12:43 35.88997 141.98511 27626 ft 301 kts 220°
2026-05-05 12:43 35.87195 141.97277 27297 ft 299 kts 219°
2026-05-05 12:43 35.85374 141.96029 26974 ft 298 kts 221°
2026-05-05 12:43 35.83581 141.94746 26643 ft 298 kts 220°
2026-05-05 12:44 35.81783 141.93480 26302 ft 295 kts 224°
2026-05-05 12:44 35.80364 141.91751 26020 ft 287 kts 240°
2026-05-05 12:44 35.79355 141.89593 25649 ft 294 kts 251°
2026-05-05 12:44 35.78837 141.87176 25289 ft 291 kts 262°
2026-05-05 12:45 35.78571 141.84710 24923 ft 289 kts 263°
2026-05-05 12:45 35.78339 141.82258 24563 ft 288 kts 263°
2026-05-05 12:45 35.78096 141.79819 24210 ft 286 kts 263°
2026-05-05 12:45 35.77843 141.77389 23869 ft 285 kts 263°
2026-05-05 12:46 35.77635 141.74955 23536 ft 286 kts 267°
2026-05-05 12:46 35.77567 141.72509 23224 ft 287 kts 269°
2026-05-05 12:46 35.77534 141.70030 22889 ft 294 kts 269°
2026-05-05 12:46 35.77501 141.67485 22537 ft 298 kts 269°
2026-05-05 12:47 35.77463 141.64937 22185 ft 297 kts 269°
2026-05-05 12:47 35.77419 141.62395 21836 ft 295 kts 269°
2026-05-05 12:47 35.77372 141.59878 21490 ft 293 kts 269°
2026-05-05 12:47 35.77321 141.57374 21140 ft 292 kts 269°
2026-05-05 12:48 35.77271 141.54884 20806 ft 290 kts 269°
2026-05-05 12:48 35.77219 141.52404 20463 ft 289 kts 269°
2026-05-05 12:48 35.77166 141.49930 20124 ft 288 kts 269°
2026-05-05 12:48 35.77112 141.47473 19794 ft 287 kts 269°
2026-05-05 12:49 35.77056 141.45028 19463 ft 285 kts 269°
2026-05-05 12:49 35.76997 141.42596 19136 ft 284 kts 269°
2026-05-05 12:49 35.76938 141.40202 18808 ft 283 kts 269°
2026-05-05 12:49 35.76878 141.37780 18487 ft 284 kts 269°
2026-05-05 12:50 35.76817 141.35330 18162 ft 287 kts 269°
2026-05-05 12:50 35.76755 141.32853 17832 ft 291 kts 269°
2026-05-05 12:50 35.76692 141.30350 17499 ft 295 kts 269°
2026-05-05 12:50 35.76628 141.27819 17158 ft 295 kts 268°
2026-05-05 12:51 35.76564 141.25302 16819 ft 293 kts 268°
2026-05-05 12:51 35.76499 141.22799 16488 ft 292 kts 268°
2026-05-05 12:51 35.76434 141.20309 16156 ft 290 kts 269°
2026-05-05 12:51 35.76411 141.17830 15835 ft 289 kts 270°
2026-05-05 12:52 35.76416 141.15363 15509 ft 287 kts 270°
2026-05-05 12:52 35.76422 141.12905 15182 ft 286 kts 270°
2026-05-05 12:52 35.76426 141.10467 14860 ft 285 kts 270°
2026-05-05 12:52 35.76425 141.08030 14545 ft 283 kts 270°
2026-05-05 12:53 35.76423 141.05610 14230 ft 282 kts 270°
2026-05-05 12:53 35.76429 141.03200 13908 ft 281 kts 273°
2026-05-05 12:53 35.76913 141.00869 13417 ft 287 kts 296°
2026-05-05 12:53 35.77893 140.98719 13027 ft 289 kts 299°
2026-05-05 12:54 35.79912 140.94459 12356 ft 287 kts 299°
2026-05-05 12:54 35.80913 140.92343 12025 ft 285 kts 299°
2026-05-05 12:54 35.81896 140.90257 11708 ft 284 kts 299°
2026-05-05 12:55 35.82882 140.88156 11395 ft 283 kts 299°
2026-05-05 12:55 35.83878 140.86030 11074 ft 282 kts 298°
2026-05-05 12:55 35.84842 140.83972 10763 ft 280 kts 298°
2026-05-05 12:55 35.85834 140.81891 10447 ft 277 kts 300°
2026-05-05 12:56 35.86812 140.79886 10146 ft 276 kts 300°
2026-05-05 12:56 35.87796 140.77885 10020 ft 269 kts 300°
2026-05-05 12:56 35.88762 140.75920 9714 ft 268 kts 300°
2026-05-05 12:56 35.89725 140.73953 9433 ft 267 kts 300°
2026-05-05 12:57 35.90689 140.71993 9141 ft 266 kts 300°
2026-05-05 12:57 35.91651 140.70042 8851 ft 265 kts 300°
2026-05-05 12:57 35.92608 140.68104 8565 ft 264 kts 300°
2026-05-05 12:57 35.93564 140.66171 8280 ft 264 kts 300°
2026-05-05 12:58 35.94515 140.64242 7993 ft 263 kts 300°
2026-05-05 12:58 35.95467 140.62313 7711 ft 262 kts 300°
2026-05-05 12:58 35.96410 140.60399 7417 ft 261 kts 300°
2026-05-05 12:58 35.97353 140.58485 7140 ft 260 kts 300°
2026-05-05 12:59 35.97973 140.57223 6958 ft 260 kts 300°
2026-05-05 12:59 35.98913 140.55322 6693 ft 259 kts 300°
2026-05-05 12:59 35.99834 140.53452 6568 ft 251 kts 300°
2026-05-05 13:00 36.01529 140.49812 6246 ft 241 kts 285°
2026-05-05 13:00 36.01602 140.47793 6036 ft 236 kts 257°
2026-05-05 13:01 36.00245 140.42076 5407 ft 228 kts 252°
2026-05-05 13:01 35.99785 140.40208 5193 ft 227 kts 252°
2026-05-05 13:01 35.99335 140.38351 4977 ft 225 kts 252°
2026-05-05 13:01 35.98786 140.36562 4730 ft 222 kts 236°
2026-05-05 13:02 35.97885 140.35034 4353 ft 220 kts 231°
2026-05-05 13:02 35.96984 140.33507 3983 ft 219 kts 232°
2026-05-05 13:02 35.96109 140.31991 3735 ft 213 kts 231°
2026-05-05 13:02 35.95273 140.30519 3528 ft 206 kts 232°
2026-05-05 13:03 35.94477 140.29087 3316 ft 199 kts 232°
2026-05-05 13:03 35.93727 140.27712 3200 ft 188 kts 230°
2026-05-05 13:03 35.92791 140.26729 3039 ft 171 kts 191°
2026-05-05 13:03 35.91715 140.26936 3018 ft 151 kts 155°
2026-05-05 13:04 35.90746 140.27473 3005 ft 154 kts 159°
2026-05-05 13:04 35.89760 140.28010 2894 ft 155 kts 155°
2026-05-05 13:04 35.88799 140.28624 2698 ft 155 kts 152°
2026-05-05 13:04 35.87870 140.29273 2489 ft 152 kts 151°
2026-05-05 13:05 35.86975 140.29914 2303 ft 151 kts 151°
2026-05-05 13:05 35.86062 140.30573 2109 ft 151 kts 150°
2026-05-05 13:05 35.85166 140.31223 1909 ft 145 kts 150°
2026-05-05 13:05 35.84325 140.31833 1717 ft 135 kts 150°
2026-05-05 13:06 35.83536 140.32406 1542 ft 133 kts 150°
2026-05-05 13:06 35.82752 140.32974 1363 ft 130 kts 150°
2026-05-05 13:06 35.81960 140.33547 1195 ft 133 kts 150°
2026-05-05 13:06 35.81162 140.34128 1012 ft 133 kts 150°
2026-05-05 13:07 35.80368 140.34703 836 ft 132 kts 150°
2026-05-05 13:07 35.79581 140.35273 657 ft 130 kts 149°
2026-05-05 13:07 35.78782 140.35859 487 ft 138 kts 150°
2026-05-05 13:07 35.77949 140.36462 306 ft 139 kts 150°
2026-05-05 13:08 35.77125 140.37055 152 ft 133 kts 150°
2026-05-05 13:08 35.76432 140.37557 144 ft 95 kts 149°
2026-05-05 13:08 35.75992 140.37872 144 ft 50 kts 149°
2026-05-05 13:08 35.75727 140.38064 146 ft 31 kts 149°
2026-05-05 13:09 35.75564 140.38223 145 ft 28 kts 135°
2026-05-05 13:09 35.75481 140.38378 144 ft 13 kts 121°
2026-05-05 13:09 35.75447 140.38450 144 ft 10 kts 118°
2026-05-05 13:09 35.75414 140.38525 143 ft 10 kts 118°
2026-05-05 13:10 35.75369 140.38582 143 ft 9 kts 147°
2026-05-05 13:10 35.75315 140.38620 143 ft 9 kts 151°
2026-05-05 13:10 35.75262 140.38658 144 ft 9 kts 149°
2026-05-05 13:10 35.75212 140.38696 144 ft 9 kts 149°
2026-05-05 13:11 35.75155 140.38774 144 ft 15 kts 92°
2026-05-05 13:11 35.75218 140.38856 143 ft 12 kts 41°
2026-05-05 13:11 35.75207 140.38943 144 ft 12 kts 143°
2026-05-05 13:11 35.75147 140.39005 144 ft 12 kts 107°
2026-05-05 13:12 35.75189 140.39079 143 ft 12 kts 26°
2026-05-05 13:12 35.75258 140.39130 143 ft 12 kts 54°
2026-05-05 13:12 35.75282 140.39200 143 ft 7 kts 64°
2026-05-05 13:12 35.75304 140.39248 143 ft 6 kts 60°
2026-05-05 13:13 35.75315 140.39265 143 ft 3 kts 37°
2026-05-05 13:13 35.75338 140.39267 143 ft 2 kts
2026-05-05 13:13 35.75350 140.39267 143 ft 0 kts